This is the latest recevied weather packets stored in our database for station/object KQ4NAL. If no packets are shown the sender has not sent any weather packets the latest 1 day(s).
| Time | Temp. | Humidity | Pressure | Rain* | Wind** | Luminosity | Snow |
|---|---|---|---|---|---|---|---|
| 1778003737 | 20.56° C | 68% | 1010.4 hPa | 0 mm | 4.92 m/s, 226° | 247 W/m² | - |
| 1778003435 | 20.56° C | 67% | 1010.4 hPa | 0 mm | 2.68 m/s, 232° | 256 W/m² | - |
| 1778003132 | 20.56° C | 67% | 1010.4 hPa | 0 mm | 4.02 m/s, 181° | 269 W/m² | - |
| 1778002827 | 20.56° C | 67% | 1010.6 hPa | 0 mm | 3.13 m/s, 199° | 270 W/m² | - |
| 1778002525 | 20.56° C | 67% | 1010.3 hPa | 0 mm | 4.02 m/s, 208° | 281 W/m² | - |
| 1778002221 | 20.56° C | 67% | 1010.3 hPa | 0 mm | 2.24 m/s, 142° | 277 W/m² | - |
| 1778001919 | 20.56° C | 66% | 1010.6 hPa | 0 mm | 4.02 m/s, 212° | 323 W/m² | - |
| 1778001615 | 20.56° C | 68% | 1010.6 hPa | 0 mm | 3.13 m/s, 215° | 338 W/m² | - |
| 1778001310 | 20.56° C | 67% | 1010.5 hPa | 0 mm | 3.58 m/s, 217° | 337 W/m² | - |
| 1778001008 | 20.56° C | 66% | 1010.4 hPa | 0 mm | 3.13 m/s, 296° | 295 W/m² | - |
| 1778000704 | 20.56° C | 67% | 1010.4 hPa | 0 mm | 2.24 m/s, 200° | 234 W/m² | - |
| 1778000400 | 20.56° C | 68% | 1010.5 hPa | 0 mm | 1.34 m/s, 248° | 298 W/m² | - |
| 1778000096 | 20.56° C | 66% | 1010.8 hPa | 0 mm | 1.79 m/s, 172° | 363 W/m² | - |
| 1777999791 | 20.56° C | 67% | 1010.6 hPa | 0 mm | 1.79 m/s, 161° | 327 W/m² | - |
| 1777999488 | 20.56° C | 67% | 1010.8 hPa | 0 mm | 2.24 m/s, 232° | 310 W/m² | - |
| 1777999186 | 20° C | 67% | 1010.8 hPa | 0 mm | 3.13 m/s, 219° | 265 W/m² | - |
| 1777998884 | 20° C | 66% | 1010.6 hPa | 0 mm | 3.58 m/s, 226° | 282 W/m² | - |
| 1777998584 | 20° C | 66% | 1010.8 hPa | 0 mm | 2.24 m/s, 196° | 281 W/m² | - |
| 1777998279 | 20° C | 67% | 1010.6 hPa | 0 mm | 2.68 m/s, 186° | 299 W/m² | - |
| 1777997976 | 20° C | 67% | 1010.8 hPa | 0 mm | 1.34 m/s, 274° | 260 W/m² | - |
| 1777997672 | 20° C | 67% | 1010.8 hPa | 0 mm | 1.34 m/s, 235° | 209 W/m² | - |
| 1777997370 | 20° C | 66% | 1010.6 hPa | 0 mm | 3.58 m/s, 199° | 210 W/m² | - |
| 1777997068 | 20° C | 67% | 1010.6 hPa | 0 mm | 0.89 m/s, 242° | 180 W/m² | - |
| 1777996764 | 20° C | 67% | 1010.6 hPa | 0 mm | 3.13 m/s, 237° | 226 W/m² | - |
| 1777996461 | 20° C | 67% | 1010.7 hPa | 0 mm | 1.79 m/s, 157° | 337 W/m² | - |
* Rain latest hour (hover to see other rain measurements)
** Current wind speed in m/s (hover to see current wind gust speed)